Year,Month,Day,Hour,Minute,Value (Times are PST for windgust in km/hr)
2012,01,26,00,00,3.20
2012,01,26,00,01,1.60
2012,01,26,00,02,3.20
2012,01,26,00,03,1.60
2012,01,26,00,06,1.60
2012,01,26,00,07,1.60
2012,01,26,00,08,4.80
2012,01,26,00,09,6.40
2012,01,26,00,10,4.80
2012,01,26,00,11,4.80
2012,01,26,00,12,1.60
2012,01,26,00,15,6.40
2012,01,26,00,16,4.80
2012,01,26,00,17,3.20
2012,01,26,00,18,3.20
2012,01,26,00,19,1.60
2012,01,26,00,20,1.60
2012,01,26,00,21,1.60
2012,01,26,00,22,1.60
2012,01,26,00,23,1.60
2012,01,26,00,25,1.60
2012,01,26,00,27,1.60
2012,01,26,00,28,1.60
2012,01,26,00,29,1.60
2012,01,26,00,31,1.60
2012,01,26,00,32,1.60
2012,01,26,00,33,4.80
2012,01,26,00,34,3.20
2012,01,26,00,35,3.20
2012,01,26,00,43,1.60
2012,01,26,00,58,1.60
2012,01,26,01,08,1.60
2012,01,26,01,11,1.60
2012,01,26,01,12,6.40
2012,01,26,01,13,4.80
2012,01,26,01,14,4.80
2012,01,26,01,15,11.30
2012,01,26,01,16,33.80
2012,01,26,01,17,32.20
2012,01,26,01,18,27.40
2012,01,26,01,19,25.70
2012,01,26,01,20,25.70
2012,01,26,01,21,38.60
2012,01,26,01,22,32.20
2012,01,26,01,23,51.50
2012,01,26,01,24,35.40
2012,01,26,01,25,37.00
2012,01,26,01,26,45.10
2012,01,26,01,27,32.20
2012,01,26,01,28,51.50
2012,01,26,01,29,51.50
2012,01,26,01,30,56.30
2012,01,26,01,31,69.20
2012,01,26,01,32,46.70
2012,01,26,01,33,51.50
2012,01,26,01,34,66.00
2012,01,26,01,35,40.20
2012,01,26,01,36,45.10
2012,01,26,01,37,30.60
2012,01,26,01,38,29.00
2012,01,26,01,39,53.10
2012,01,26,01,40,46.70
2012,01,26,01,41,35.40
2012,01,26,01,42,38.60
2012,01,26,01,43,38.60
2012,01,26,01,44,49.90
2012,01,26,01,45,37.00
2012,01,26,01,46,46.70
2012,01,26,01,47,51.50
2012,01,26,01,48,38.60
2012,01,26,01,49,54.70
2012,01,26,01,50,41.80
2012,01,26,01,51,48.30
2012,01,26,01,52,70.80
2012,01,26,01,53,56.30
2012,01,26,01,54,33.80
2012,01,26,01,55,22.50
2012,01,26,01,56,37.00
2012,01,26,01,57,38.60
2012,01,26,01,58,35.40
2012,01,26,01,59,59.50
2012,01,26,02,00,53.10
2012,01,26,02,01,35.40
2012,01,26,02,02,38.60
2012,01,26,02,03,41.80
2012,01,26,02,04,49.90
2012,01,26,02,05,43.50
2012,01,26,02,06,33.80
2012,01,26,02,07,33.80
2012,01,26,02,08,48.30
2012,01,26,02,09,33.80
2012,01,26,02,10,45.10
2012,01,26,02,11,37.00
2012,01,26,02,12,38.60
2012,01,26,02,13,48.30
2012,01,26,02,14,27.40
2012,01,26,02,15,33.80
2012,01,26,02,16,61.20
2012,01,26,02,17,46.70
2012,01,26,02,18,32.20
2012,01,26,02,19,45.10
2012,01,26,02,20,32.20
2012,01,26,02,21,46.70
2012,01,26,02,22,27.40
2012,01,26,02,23,30.60
2012,01,26,02,24,41.80
2012,01,26,02,25,54.70
2012,01,26,02,26,40.20
2012,01,26,02,27,45.10
2012,01,26,02,28,25.70
2012,01,26,02,29,30.60
2012,01,26,02,30,37.00
2012,01,26,02,31,46.70
2012,01,26,02,32,40.20
2012,01,26,02,33,49.90
2012,01,26,02,34,41.80
2012,01,26,02,35,46.70
2012,01,26,02,36,30.60
2012,01,26,02,37,53.10
2012,01,26,02,38,37.00
2012,01,26,02,39,37.00
2012,01,26,02,40,32.20
2012,01,26,02,41,37.00
2012,01,26,02,42,32.20
2012,01,26,02,43,27.40
2012,01,26,02,44,62.70
2012,01,26,02,45,66.00
2012,01,26,02,46,45.10
2012,01,26,02,47,46.70
2012,01,26,02,48,61.20
2012,01,26,02,49,57.90
2012,01,26,02,50,38.60
2012,01,26,02,51,30.60
2012,01,26,02,52,25.70
2012,01,26,02,53,66.00
2012,01,26,02,54,46.70
2012,01,26,02,55,45.10
2012,01,26,02,56,43.50
2012,01,26,02,57,51.50
2012,01,26,02,58,25.70
2012,01,26,02,59,41.80
2012,01,26,03,00,38.60
2012,01,26,03,01,37.00
2012,01,26,03,02,41.80
2012,01,26,03,03,35.40
2012,01,26,03,04,24.20
2012,01,26,03,05,40.20
2012,01,26,03,06,29.00
2012,01,26,03,07,46.70
2012,01,26,03,08,41.80
2012,01,26,03,09,30.60
2012,01,26,03,10,35.40
2012,01,26,03,11,32.20
2012,01,26,03,12,33.80
2012,01,26,03,13,20.90
2012,01,26,03,14,37.00
2012,01,26,03,15,30.60
2012,01,26,03,16,49.90
2012,01,26,03,17,40.20
2012,01,26,03,18,35.40
2012,01,26,03,19,38.60
2012,01,26,03,20,25.70
2012,01,26,03,21,32.20
2012,01,26,03,22,43.50
2012,01,26,03,23,33.80
2012,01,26,03,24,64.40
2012,01,26,03,25,64.40
2012,01,26,03,26,43.50
2012,01,26,03,27,38.60
2012,01,26,03,28,38.60
2012,01,26,03,29,48.30
2012,01,26,03,30,51.50
2012,01,26,03,31,43.50
2012,01,26,03,32,43.50
2012,01,26,03,33,38.60
2012,01,26,03,34,27.40
2012,01,26,03,35,19.30
2012,01,26,03,36,35.40
2012,01,26,03,37,37.00
2012,01,26,03,38,17.70
2012,01,26,03,39,25.70
2012,01,26,03,40,40.20
2012,01,26,03,41,32.20
2012,01,26,03,42,46.70
2012,01,26,03,43,32.20
2012,01,26,03,44,33.80
2012,01,26,03,45,19.30
2012,01,26,03,46,27.40
2012,01,26,03,47,24.20
2012,01,26,03,48,33.80
2012,01,26,03,49,30.60
2012,01,26,03,50,32.20
2012,01,26,03,51,35.40
2012,01,26,03,52,30.60
2012,01,26,03,53,24.20
2012,01,26,03,54,25.70
2012,01,26,03,55,29.00
2012,01,26,03,56,19.30
2012,01,26,03,57,22.50
2012,01,26,03,58,37.00
2012,01,26,03,59,38.60
2012,01,26,04,00,27.40
2012,01,26,04,01,35.40
2012,01,26,04,02,17.70
2012,01,26,04,03,38.60
2012,01,26,04,04,25.70
2012,01,26,04,05,25.70
2012,01,26,04,06,35.40
2012,01,26,04,07,32.20
2012,01,26,04,08,32.20
2012,01,26,04,09,25.70
2012,01,26,04,10,22.50
2012,01,26,04,11,37.00
2012,01,26,04,12,53.10
2012,01,26,04,13,22.50
2012,01,26,04,14,27.40
2012,01,26,04,15,24.20
2012,01,26,04,16,37.00
2012,01,26,04,17,45.10
2012,01,26,04,18,32.20
2012,01,26,04,19,33.80
2012,01,26,04,20,32.20
2012,01,26,04,21,29.00
2012,01,26,04,22,46.70
2012,01,26,04,23,30.60
2012,01,26,04,24,29.00
2012,01,26,04,25,48.30
2012,01,26,04,26,54.70
2012,01,26,04,27,33.80
2012,01,26,04,28,32.20
2012,01,26,04,29,22.50
2012,01,26,04,30,45.10
2012,01,26,04,31,25.70
2012,01,26,04,32,24.20
2012,01,26,04,33,22.50
2012,01,26,04,34,16.10
2012,01,26,04,35,12.90
2012,01,26,04,36,22.50
2012,01,26,04,37,38.60
2012,01,26,04,38,35.40
2012,01,26,04,39,32.20
2012,01,26,04,40,30.60
2012,01,26,04,41,30.60
2012,01,26,04,42,30.60
2012,01,26,04,43,30.60
2012,01,26,04,44,35.40
2012,01,26,04,45,19.30
2012,01,26,04,46,41.80
2012,01,26,04,47,30.60
2012,01,26,04,48,29.00
2012,01,26,04,49,32.20
2012,01,26,04,50,29.00
2012,01,26,04,51,25.70
2012,01,26,04,52,37.00
2012,01,26,04,53,25.70
2012,01,26,04,54,35.40
2012,01,26,04,55,37.00
2012,01,26,04,56,29.00
2012,01,26,04,57,19.30
2012,01,26,04,58,27.40
2012,01,26,04,59,32.20
2012,01,26,05,00,41.80
2012,01,26,05,01,33.80
2012,01,26,05,02,32.20
2012,01,26,05,03,27.40
2012,01,26,05,04,41.80
2012,01,26,05,05,19.30
2012,01,26,05,06,29.00
2012,01,26,05,07,17.70
2012,01,26,05,08,22.50
2012,01,26,05,09,24.20
2012,01,26,05,10,30.60
2012,01,26,05,11,30.60
2012,01,26,05,12,38.60
2012,01,26,05,13,32.20
2012,01,26,05,14,40.20
2012,01,26,05,15,37.00
2012,01,26,05,16,35.40
2012,01,26,05,17,33.80
2012,01,26,05,18,33.80
2012,01,26,05,19,24.20
2012,01,26,05,20,33.80
2012,01,26,05,21,35.40
2012,01,26,05,22,24.20
2012,01,26,05,23,19.30
2012,01,26,05,24,22.50
2012,01,26,05,25,22.50
2012,01,26,05,26,24.20
2012,01,26,05,27,35.40
2012,01,26,05,28,20.90
2012,01,26,05,29,27.40
2012,01,26,05,30,14.50
2012,01,26,05,31,9.60
2012,01,26,05,32,17.70
2012,01,26,05,33,16.10
2012,01,26,05,34,20.90
2012,01,26,05,35,14.50
2012,01,26,05,36,19.30
2012,01,26,05,37,24.20
2012,01,26,05,38,16.10
2012,01,26,05,39,11.30
2012,01,26,05,40,11.30
2012,01,26,05,41,9.60
2012,01,26,05,42,22.50
2012,01,26,05,43,24.20
2012,01,26,05,44,19.30
2012,01,26,05,45,20.90
2012,01,26,05,46,25.70
2012,01,26,05,47,16.10
2012,01,26,05,48,9.60
2012,01,26,05,49,14.50
2012,01,26,05,50,12.90
2012,01,26,05,51,8.10
2012,01,26,05,52,11.30
2012,01,26,05,53,11.30
2012,01,26,05,54,20.90
2012,01,26,05,55,22.50
2012,01,26,05,56,14.50
2012,01,26,05,57,19.30
2012,01,26,05,58,24.20
2012,01,26,05,59,14.50
2012,01,26,06,00,16.10
2012,01,26,06,01,30.60
2012,01,26,06,02,14.50
2012,01,26,06,03,9.60
2012,01,26,06,04,19.30
2012,01,26,06,05,9.60
2012,01,26,06,06,14.50
2012,01,26,06,07,9.60
2012,01,26,06,08,9.60
2012,01,26,06,09,4.80
2012,01,26,06,10,4.80
2012,01,26,06,11,3.20
2012,01,26,06,12,8.10
2012,01,26,06,13,8.10
2012,01,26,06,14,8.10
2012,01,26,06,15,8.10
2012,01,26,06,16,14.50
2012,01,26,06,17,16.10
2012,01,26,06,18,11.30
2012,01,26,06,19,6.40
2012,01,26,06,20,9.60
2012,01,26,06,21,8.10
2012,01,26,06,22,11.30
2012,01,26,06,23,8.10
2012,01,26,06,24,6.40
2012,01,26,06,25,4.80
2012,01,26,06,26,6.40
2012,01,26,06,27,12.90
2012,01,26,06,28,8.10
2012,01,26,06,29,1.60
2012,01,26,06,30,8.10
2012,01,26,06,31,9.60
2012,01,26,06,32,9.60
2012,01,26,06,33,8.10
2012,01,26,06,34,9.60
2012,01,26,06,35,14.50
2012,01,26,06,36,16.10
2012,01,26,06,37,16.10
2012,01,26,06,38,9.60
2012,01,26,06,39,8.10
2012,01,26,06,40,11.30
2012,01,26,06,41,4.80
2012,01,26,06,42,6.40
2012,01,26,06,43,6.40
2012,01,26,06,44,6.40
2012,01,26,06,45,3.20
2012,01,26,06,46,1.60
2012,01,26,06,47,3.20
2012,01,26,06,48,6.40
2012,01,26,06,49,1.60
2012,01,26,06,50,8.10
2012,01,26,06,51,3.20
2012,01,26,06,52,4.80
2012,01,26,06,53,3.20
2012,01,26,06,54,3.20
2012,01,26,06,55,6.40
2012,01,26,06,56,3.20
2012,01,26,06,57,3.20
2012,01,26,06,58,4.80
2012,01,26,06,59,6.40
2012,01,26,07,00,9.60
2012,01,26,07,01,9.60
2012,01,26,07,02,33.80
2012,01,26,07,03,20.90
2012,01,26,07,04,14.50
2012,01,26,07,05,14.50
2012,01,26,07,06,6.40
2012,01,26,07,07,17.70
2012,01,26,07,08,30.60
2012,01,26,07,09,9.60
2012,01,26,07,10,19.30
2012,01,26,07,11,16.10
2012,01,26,07,12,16.10
2012,01,26,07,13,20.90
2012,01,26,07,14,17.70
2012,01,26,07,15,25.70
2012,01,26,07,16,16.10
2012,01,26,07,17,27.40
2012,01,26,07,18,29.00
2012,01,26,07,19,20.90
2012,01,26,07,20,8.10
2012,01,26,07,21,8.10
2012,01,26,07,22,11.30
2012,01,26,07,23,19.30
2012,01,26,07,24,14.50
2012,01,26,07,25,6.40
2012,01,26,07,26,8.10
2012,01,26,07,27,8.10
2012,01,26,07,28,6.40
2012,01,26,07,29,11.30
2012,01,26,07,30,12.90
2012,01,26,07,31,4.80
2012,01,26,07,32,4.80
2012,01,26,07,33,4.80
2012,01,26,07,34,8.10
2012,01,26,07,35,1.60
2012,01,26,07,36,3.20
2012,01,26,07,37,1.60
2012,01,26,07,38,3.20
2012,01,26,07,39,4.80
2012,01,26,07,40,3.20
2012,01,26,07,41,3.20
2012,01,26,07,42,1.60
2012,01,26,07,43,3.20
2012,01,26,07,44,3.20
2012,01,26,07,45,3.20
2012,01,26,07,46,1.60
2012,01,26,07,48,4.80
2012,01,26,07,49,1.60
2012,01,26,07,50,3.20
2012,01,26,07,51,1.60
2012,01,26,07,52,3.20
2012,01,26,07,53,4.80
2012,01,26,07,54,4.80
2012,01,26,07,55,4.80
2012,01,26,07,56,8.10
2012,01,26,07,57,9.60
2012,01,26,07,58,9.60
2012,01,26,07,59,8.10
2012,01,26,08,00,4.80
2012,01,26,08,01,6.40
2012,01,26,08,02,14.50
2012,01,26,08,03,14.50
2012,01,26,08,04,8.10
2012,01,26,08,05,4.80
2012,01,26,08,06,4.80
2012,01,26,08,07,3.20
2012,01,26,08,08,6.40
2012,01,26,08,09,4.80
2012,01,26,08,10,6.40
2012,01,26,08,11,6.40
2012,01,26,08,12,9.60
2012,01,26,08,13,9.60
2012,01,26,08,14,4.80
2012,01,26,08,15,6.40
2012,01,26,08,16,9.60
2012,01,26,08,17,8.10
2012,01,26,08,18,4.80
2012,01,26,08,19,6.40
2012,01,26,08,20,8.10
2012,01,26,08,21,9.60
2012,01,26,08,22,9.60
2012,01,26,08,23,6.40
2012,01,26,08,24,4.80
2012,01,26,08,25,4.80
2012,01,26,08,26,9.60
2012,01,26,08,27,9.60
2012,01,26,08,28,11.30
2012,01,26,08,29,11.30
2012,01,26,08,30,9.60
2012,01,26,08,31,4.80
2012,01,26,08,32,4.80
2012,01,26,08,33,6.40
2012,01,26,08,34,4.80
2012,01,26,08,35,4.80
2012,01,26,08,36,3.20
2012,01,26,08,37,3.20
2012,01,26,08,38,3.20
2012,01,26,08,39,6.40
2012,01,26,08,40,4.80
2012,01,26,08,41,4.80
2012,01,26,08,42,3.20
2012,01,26,08,43,3.20
2012,01,26,08,44,1.60
2012,01,26,08,45,3.20
2012,01,26,08,46,4.80
2012,01,26,08,47,3.20
2012,01,26,08,48,4.80
2012,01,26,08,49,11.30
2012,01,26,08,50,4.80
2012,01,26,08,51,14.50
2012,01,26,08,52,9.60
2012,01,26,08,53,14.50
2012,01,26,08,54,27.40
2012,01,26,08,55,17.70
2012,01,26,08,56,8.10
2012,01,26,08,57,20.90
2012,01,26,08,58,20.90
2012,01,26,08,59,22.50
2012,01,26,09,00,17.70
2012,01,26,09,01,9.60
2012,01,26,09,02,9.60
2012,01,26,09,03,9.60
2012,01,26,09,04,16.10
2012,01,26,09,05,19.30
2012,01,26,09,06,11.30
2012,01,26,09,07,14.50
2012,01,26,09,08,14.50
2012,01,26,09,09,6.40
2012,01,26,09,10,14.50
2012,01,26,09,11,9.60
2012,01,26,09,12,16.10
2012,01,26,09,13,6.40
2012,01,26,09,14,6.40
2012,01,26,09,15,14.50
2012,01,26,09,16,9.60
2012,01,26,09,17,8.10
2012,01,26,09,18,9.60
2012,01,26,09,19,9.60
2012,01,26,09,20,9.60
2012,01,26,09,21,6.40
2012,01,26,09,22,9.60
2012,01,26,09,23,11.30
2012,01,26,09,24,9.60
2012,01,26,09,25,6.40
2012,01,26,09,26,6.40
2012,01,26,09,27,1.60
2012,01,26,09,28,4.80
2012,01,26,09,29,11.30
2012,01,26,09,30,9.60
2012,01,26,09,31,8.10
2012,01,26,09,32,6.40
2012,01,26,09,33,4.80
2012,01,26,09,34,4.80
2012,01,26,09,35,4.80
2012,01,26,09,36,6.40
2012,01,26,09,37,11.30
2012,01,26,09,38,14.50
2012,01,26,09,39,9.60
2012,01,26,09,40,6.40
2012,01,26,09,41,4.80
2012,01,26,09,42,11.30
2012,01,26,09,43,22.50
2012,01,26,09,44,19.30
2012,01,26,09,45,41.80
2012,01,26,09,46,37.00
2012,01,26,09,47,29.00
2012,01,26,09,48,25.70
2012,01,26,09,49,20.90
2012,01,26,09,50,14.50
2012,01,26,09,51,17.70
2012,01,26,09,52,19.30
2012,01,26,09,53,9.60
2012,01,26,09,54,8.10
2012,01,26,09,55,6.40
2012,01,26,09,56,14.50
2012,01,26,09,57,9.60
2012,01,26,09,58,11.30
2012,01,26,09,59,8.10
2012,01,26,10,00,14.50
2012,01,26,10,01,12.90
2012,01,26,10,02,8.10
2012,01,26,10,03,6.40
2012,01,26,10,04,14.50
2012,01,26,10,05,11.30
2012,01,26,10,06,6.40
2012,01,26,10,07,4.80
2012,01,26,10,08,3.20
2012,01,26,10,09,4.80
2012,01,26,10,10,3.20
2012,01,26,10,11,1.60
2012,01,26,10,12,3.20
2012,01,26,10,13,1.60
2012,01,26,10,14,4.80
2012,01,26,10,15,1.60
2012,01,26,10,17,1.60
2012,01,26,10,18,3.20
2012,01,26,10,19,3.20
2012,01,26,10,20,3.20
2012,01,26,10,21,4.80
2012,01,26,10,22,3.20
2012,01,26,10,23,3.20
2012,01,26,10,24,6.40
2012,01,26,10,25,4.80
2012,01,26,10,26,4.80
2012,01,26,10,27,6.40
2012,01,26,10,28,8.10
2012,01,26,10,29,16.10
2012,01,26,10,30,16.10
2012,01,26,10,31,11.30
2012,01,26,10,32,11.30
2012,01,26,10,33,8.10
2012,01,26,10,34,11.30
2012,01,26,10,35,16.10
2012,01,26,10,36,19.30
2012,01,26,10,37,16.10
2012,01,26,10,38,14.50
2012,01,26,10,39,14.50
2012,01,26,10,40,6.40
2012,01,26,10,41,9.60
2012,01,26,10,42,14.50
2012,01,26,10,43,12.90
2012,01,26,10,44,24.20
2012,01,26,10,45,14.50
2012,01,26,10,46,11.30
2012,01,26,10,47,11.30
2012,01,26,10,48,20.90
2012,01,26,10,49,17.70
2012,01,26,10,50,17.70
2012,01,26,10,51,16.10
2012,01,26,10,52,22.50
2012,01,26,10,53,22.50
2012,01,26,10,54,11.30
2012,01,26,10,55,19.30
2012,01,26,10,56,20.90
2012,01,26,10,57,16.10
2012,01,26,10,58,22.50
2012,01,26,10,59,14.50
2012,01,26,11,00,11.30
2012,01,26,11,01,12.90
2012,01,26,11,02,17.70
2012,01,26,11,03,17.70
2012,01,26,11,04,27.40
2012,01,26,11,05,19.30
2012,01,26,11,06,19.30
2012,01,26,11,07,14.50
2012,01,26,11,08,19.30
2012,01,26,11,09,17.70
2012,01,26,11,10,12.90
2012,01,26,11,11,20.90
2012,01,26,11,12,11.30
2012,01,26,11,13,11.30
2012,01,26,11,14,11.30
2012,01,26,11,15,33.80
2012,01,26,11,16,32.20
2012,01,26,11,17,24.20
2012,01,26,11,18,25.70
2012,01,26,11,19,17.70
2012,01,26,11,20,33.80
2012,01,26,11,21,25.70
2012,01,26,11,22,24.20
2012,01,26,11,23,30.60
2012,01,26,11,24,24.20
2012,01,26,11,25,16.10
2012,01,26,11,26,25.70
2012,01,26,11,27,27.40
2012,01,26,11,28,29.00
2012,01,26,11,29,17.70
2012,01,26,11,30,14.50
2012,01,26,11,31,24.20
2012,01,26,11,32,25.70
2012,01,26,11,33,22.50
2012,01,26,11,34,22.50
2012,01,26,11,35,25.70
2012,01,26,11,36,29.00
2012,01,26,11,37,17.70
2012,01,26,11,38,17.70
2012,01,26,11,39,19.30
2012,01,26,11,40,19.30
2012,01,26,11,41,20.90
2012,01,26,11,42,24.20
2012,01,26,11,43,20.90
2012,01,26,11,44,14.50
2012,01,26,11,45,11.30
2012,01,26,11,46,8.10
2012,01,26,11,47,30.60
2012,01,26,11,48,32.20
2012,01,26,11,49,16.10
2012,01,26,11,50,14.50
2012,01,26,11,51,27.40
2012,01,26,11,52,35.40
2012,01,26,11,53,20.90
2012,01,26,11,54,25.70
2012,01,26,11,55,20.90
2012,01,26,11,56,27.40
2012,01,26,11,57,20.90
2012,01,26,11,58,22.50
2012,01,26,11,59,24.20
2012,01,26,12,00,17.70
2012,01,26,12,01,17.70
2012,01,26,12,02,20.90
2012,01,26,12,03,17.70
2012,01,26,12,04,25.70
2012,01,26,12,05,27.40
2012,01,26,12,06,25.70
2012,01,26,12,07,29.00
2012,01,26,12,08,29.00
2012,01,26,12,09,38.60
2012,01,26,12,10,22.50
2012,01,26,12,11,20.90
2012,01,26,12,12,19.30
2012,01,26,12,13,22.50
2012,01,26,12,14,30.60
2012,01,26,12,15,30.60
2012,01,26,12,16,32.20
2012,01,26,12,17,46.70
2012,01,26,12,18,27.40
2012,01,26,12,19,25.70
2012,01,26,12,20,35.40
2012,01,26,12,21,30.60
2012,01,26,12,22,29.00
2012,01,26,12,23,32.20
2012,01,26,12,24,27.40
2012,01,26,12,25,19.30
2012,01,26,12,26,11.30
2012,01,26,12,27,20.90
2012,01,26,12,28,22.50
2012,01,26,12,29,17.70
2012,01,26,12,30,30.60
2012,01,26,12,31,24.20
2012,01,26,12,32,27.40
2012,01,26,12,33,27.40
2012,01,26,12,34,24.20
2012,01,26,12,35,19.30
2012,01,26,12,36,14.50
2012,01,26,12,37,8.10
2012,01,26,12,38,24.20
2012,01,26,12,39,24.20
2012,01,26,12,40,22.50
2012,01,26,12,41,24.20
2012,01,26,12,42,17.70
2012,01,26,12,43,29.00
2012,01,26,12,44,24.20
2012,01,26,12,45,25.70
2012,01,26,12,46,33.80
2012,01,26,12,47,32.20
2012,01,26,12,48,20.90
2012,01,26,12,49,19.30
2012,01,26,12,50,16.10
2012,01,26,12,51,43.50
2012,01,26,12,52,35.40
2012,01,26,12,53,30.60
2012,01,26,12,54,37.00
2012,01,26,12,55,29.00
2012,01,26,12,56,25.70
2012,01,26,12,57,19.30
2012,01,26,12,58,41.80
2012,01,26,12,59,40.20
2012,01,26,13,00,37.00
2012,01,26,13,01,12.90
2012,01,26,13,02,22.50
2012,01,26,13,03,22.50
2012,01,26,13,04,24.20
2012,01,26,13,05,24.20
2012,01,26,13,06,29.00
2012,01,26,13,07,29.00
2012,01,26,13,08,17.70
2012,01,26,13,09,19.30
2012,01,26,13,10,16.10
2012,01,26,13,11,9.60
2012,01,26,13,12,11.30
2012,01,26,13,13,16.10
2012,01,26,13,14,22.50
2012,01,26,13,15,25.70
2012,01,26,13,16,25.70
2012,01,26,13,17,16.10
2012,01,26,13,18,14.50
2012,01,26,13,19,16.10
2012,01,26,13,20,11.30
2012,01,26,13,21,19.30
2012,01,26,13,22,17.70
2012,01,26,13,23,24.20
2012,01,26,13,24,17.70
2012,01,26,13,25,24.20
2012,01,26,13,26,33.80
2012,01,26,13,27,22.50
2012,01,26,13,28,22.50
2012,01,26,13,29,32.20
2012,01,26,13,30,37.00
2012,01,26,13,31,43.50
2012,01,26,13,32,35.40
2012,01,26,13,33,29.00
2012,01,26,13,34,43.50
2012,01,26,13,35,33.80
2012,01,26,13,36,40.20
2012,01,26,13,37,33.80
2012,01,26,13,38,25.70
2012,01,26,13,39,33.80
2012,01,26,13,40,40.20
2012,01,26,13,41,22.50
2012,01,26,13,42,22.50
2012,01,26,13,43,41.80
2012,01,26,13,44,35.40
2012,01,26,13,45,32.20
2012,01,26,13,46,29.00
2012,01,26,13,47,33.80
2012,01,26,13,48,35.40
2012,01,26,13,49,29.00
2012,01,26,13,50,33.80
2012,01,26,13,51,24.20
2012,01,26,13,52,24.20
2012,01,26,13,53,35.40
2012,01,26,13,54,29.00
2012,01,26,13,55,24.20
2012,01,26,13,56,27.40
2012,01,26,13,57,24.20
2012,01,26,13,58,22.50
2012,01,26,13,59,11.30
2012,01,26,14,00,22.50
2012,01,26,14,01,32.20
2012,01,26,14,02,27.40
2012,01,26,14,03,32.20
2012,01,26,14,04,16.10
2012,01,26,14,05,27.40
2012,01,26,14,06,29.00
2012,01,26,14,07,17.70
2012,01,26,14,08,20.90
2012,01,26,14,09,19.30
2012,01,26,14,10,29.00
2012,01,26,14,11,38.60
2012,01,26,14,12,32.20
2012,01,26,14,13,27.40
2012,01,26,14,14,38.60
2012,01,26,14,15,32.20
2012,01,26,14,16,32.20
2012,01,26,14,17,25.70
2012,01,26,14,18,19.30
2012,01,26,14,19,25.70
2012,01,26,14,20,27.40
2012,01,26,14,21,35.40
2012,01,26,14,22,24.20
2012,01,26,14,23,17.70
2012,01,26,14,24,20.90
2012,01,26,14,25,29.00
2012,01,26,14,26,16.10
2012,01,26,14,27,17.70
2012,01,26,14,28,20.90
2012,01,26,14,29,16.10
2012,01,26,14,30,19.30
2012,01,26,14,31,17.70
2012,01,26,14,32,27.40
2012,01,26,14,33,17.70
2012,01,26,14,34,11.30
2012,01,26,14,35,20.90
2012,01,26,14,36,16.10
2012,01,26,14,37,25.70
2012,01,26,14,38,22.50
2012,01,26,14,39,22.50
2012,01,26,14,40,20.90
2012,01,26,14,41,30.60
2012,01,26,14,42,37.00
2012,01,26,14,43,32.20
2012,01,26,14,44,37.00
2012,01,26,14,45,29.00
2012,01,26,14,46,25.70
2012,01,26,14,47,17.70
2012,01,26,14,48,32.20
2012,01,26,14,49,30.60
2012,01,26,14,50,20.90
2012,01,26,14,51,22.50
2012,01,26,14,52,24.20
2012,01,26,14,53,14.50
2012,01,26,14,54,17.70
2012,01,26,14,55,16.10
2012,01,26,14,56,19.30
2012,01,26,14,57,14.50
2012,01,26,14,58,11.30
2012,01,26,14,59,17.70
2012,01,26,15,00,22.50
2012,01,26,15,01,17.70
2012,01,26,15,02,27.40
2012,01,26,15,03,43.50
2012,01,26,15,04,37.00
2012,01,26,15,05,25.70
2012,01,26,15,06,20.90
2012,01,26,15,07,24.20
2012,01,26,15,08,16.10
2012,01,26,15,09,20.90
2012,01,26,15,10,24.20
2012,01,26,15,11,27.40
2012,01,26,15,12,25.70
2012,01,26,15,13,22.50
2012,01,26,15,14,19.30
2012,01,26,15,15,22.50
2012,01,26,15,16,41.80
2012,01,26,15,17,20.90
2012,01,26,15,18,30.60
2012,01,26,15,19,16.10
2012,01,26,15,20,25.70
2012,01,26,15,21,27.40
2012,01,26,15,22,24.20
2012,01,26,15,23,16.10
2012,01,26,15,24,27.40
2012,01,26,15,25,20.90
2012,01,26,15,26,22.50
2012,01,26,15,27,20.90
2012,01,26,15,28,33.80
2012,01,26,15,29,30.60
2012,01,26,15,30,25.70
2012,01,26,15,31,25.70
2012,01,26,15,32,37.00
2012,01,26,15,33,30.60
2012,01,26,15,34,29.00
2012,01,26,15,35,33.80
2012,01,26,15,36,25.70
2012,01,26,15,37,22.50
2012,01,26,15,38,22.50
2012,01,26,15,39,37.00
2012,01,26,15,40,32.20
2012,01,26,15,41,22.50
2012,01,26,15,42,27.40
2012,01,26,15,43,19.30
2012,01,26,15,44,20.90
2012,01,26,15,45,16.10
2012,01,26,15,46,11.30
2012,01,26,15,47,19.30
2012,01,26,15,48,16.10
2012,01,26,15,49,19.30
2012,01,26,15,50,25.70
2012,01,26,15,51,14.50
2012,01,26,15,52,27.40
2012,01,26,15,53,43.50
2012,01,26,15,54,22.50
2012,01,26,15,55,22.50
2012,01,26,15,56,16.10
2012,01,26,15,57,11.30
2012,01,26,15,58,19.30
2012,01,26,15,59,20.90
2012,01,26,16,00,22.50
2012,01,26,16,01,20.90
2012,01,26,16,02,14.50
2012,01,26,16,03,17.70
2012,01,26,16,04,29.00
2012,01,26,16,05,25.70
2012,01,26,16,06,17.70
2012,01,26,16,07,17.70
2012,01,26,16,08,27.40
2012,01,26,16,09,22.50
2012,01,26,16,10,22.50
2012,01,26,16,11,24.20
2012,01,26,16,12,22.50
2012,01,26,16,13,22.50
2012,01,26,16,14,24.20
2012,01,26,16,15,17.70
2012,01,26,16,16,11.30
2012,01,26,16,17,11.30
2012,01,26,16,18,16.10
2012,01,26,16,19,14.50
2012,01,26,16,20,12.90
2012,01,26,16,21,11.30
2012,01,26,16,22,17.70
2012,01,26,16,23,19.30
2012,01,26,16,24,25.70
2012,01,26,16,25,11.30
2012,01,26,16,26,20.90
2012,01,26,16,27,11.30
2012,01,26,16,28,16.10
2012,01,26,16,29,25.70
2012,01,26,16,30,19.30
2012,01,26,16,31,17.70
2012,01,26,16,32,12.90
2012,01,26,16,33,20.90
2012,01,26,16,34,17.70
2012,01,26,16,35,19.30
2012,01,26,16,36,16.10
2012,01,26,16,37,9.60
2012,01,26,16,38,14.50
2012,01,26,16,39,19.30
2012,01,26,16,40,17.70
2012,01,26,16,41,14.50
2012,01,26,16,42,11.30
2012,01,26,16,43,17.70
2012,01,26,16,44,19.30
2012,01,26,16,45,16.10
2012,01,26,16,46,11.30
2012,01,26,16,47,16.10
2012,01,26,16,48,20.90
2012,01,26,16,49,14.50
2012,01,26,16,50,8.10
2012,01,26,16,51,9.60
2012,01,26,16,52,9.60
2012,01,26,16,53,9.60
2012,01,26,16,54,14.50
2012,01,26,16,55,11.30
2012,01,26,16,56,11.30
2012,01,26,16,57,9.60
2012,01,26,16,58,11.30
2012,01,26,16,59,14.50
2012,01,26,17,00,6.40
2012,01,26,17,01,8.10
2012,01,26,17,02,4.80
2012,01,26,17,03,8.10
2012,01,26,17,04,6.40
2012,01,26,17,05,9.60
2012,01,26,17,06,4.80
2012,01,26,17,07,3.20
2012,01,26,17,08,3.20
2012,01,26,17,09,8.10
2012,01,26,17,10,8.10
2012,01,26,17,11,4.80
2012,01,26,17,12,3.20
2012,01,26,17,13,6.40
2012,01,26,17,14,1.60
2012,01,26,17,15,3.20
2012,01,26,17,16,1.60
2012,01,26,17,17,1.60
2012,01,26,17,18,1.60
2012,01,26,17,19,4.80
2012,01,26,17,20,4.80
2012,01,26,17,22,4.80
2012,01,26,17,23,3.20
2012,01,26,17,24,6.40
2012,01,26,17,26,1.60
2012,01,26,17,27,1.60
2012,01,26,17,28,6.40
2012,01,26,17,30,1.60
2012,01,26,17,31,3.20
2012,01,26,17,32,3.20
2012,01,26,17,33,1.60
2012,01,26,17,36,3.20
2012,01,26,17,37,1.60
2012,01,26,17,39,1.60
2012,01,26,17,40,3.20
2012,01,26,17,41,1.60
2012,01,26,17,43,1.60
2012,01,26,17,44,1.60
2012,01,26,17,45,1.60
2012,01,26,17,46,1.60
2012,01,26,17,47,3.20
2012,01,26,17,48,1.60
2012,01,26,17,49,1.60
2012,01,26,17,51,4.80
2012,01,26,17,52,1.60
2012,01,26,17,53,1.60
2012,01,26,17,54,1.60
2012,01,26,17,55,6.40
2012,01,26,17,56,6.40
2012,01,26,17,57,3.20
2012,01,26,17,58,1.60
2012,01,26,17,59,1.60
2012,01,26,18,00,1.60
2012,01,26,18,01,1.60
2012,01,26,18,02,1.60
2012,01,26,18,03,1.60
2012,01,26,18,04,1.60
2012,01,26,18,05,3.20
2012,01,26,18,06,3.20
2012,01,26,18,07,1.60
2012,01,26,18,08,1.60
2012,01,26,18,09,3.20
2012,01,26,18,10,1.60
2012,01,26,18,11,1.60
2012,01,26,18,13,1.60
2012,01,26,18,16,1.60
2012,01,26,18,17,1.60
2012,01,26,18,25,1.60
2012,01,26,18,26,1.60
2012,01,26,18,28,1.60
2012,01,26,18,29,1.60
2012,01,26,18,30,3.20
2012,01,26,18,31,1.60
2012,01,26,18,33,1.60
2012,01,26,18,34,9.60